| time (UTC) | temp C | wind direction | speed KPH | gust KPH | rain 1hr cm | rain 24hr cm | rain mn cm | humidity % | barometer mb |
| 20260503212113 | 13 | 331 | 8.0 | 17.7 | 0.00 | 0.00 | 0.00 | 90 | 1010.3 |
| 20260503211110 | 14 | 26 | 4.8 | 12.9 | 0.00 | 0.00 | 0.00 | 89 | 1010.6 |
| 20260503210108 | 14 | 324 | 3.2 | 6.4 | 0.00 | 0.00 | 0.00 | 88 | 1010.5 |
| 20260503205104 | 14 | 2 | 4.8 | 9.7 | 0.00 | 0.00 | 0.00 | 87 | 1010.4 |
| 20260503204102 | 14 | 330 | 4.8 | 6.4 | 0.00 | 0.00 | 0.00 | 87 | 1010.5 |
| 20260503203059 | 14 | 328 | 4.8 | 12.9 | 0.00 | 0.00 | 0.00 | 88 | 1010.6 |
| 20260503202057 | 14 | 313 | 4.8 | 9.7 | 0.00 | 0.00 | 0.00 | 89 | 1010.6 |
| 20260503201054 | 14 | 351 | 1.6 | 6.4 | 0.00 | 0.00 | 0.00 | 89 | 1010.6 |
| 20260503200052 | 14 | 335 | 1.6 | 6.4 | 0.00 | 0.00 | 0.00 | 89 | 1010.4 |
| 20260503195049 | 14 | 300 | 4.8 | 6.4 | 0.00 | 0.00 | 0.00 | 89 | 1010.4 |
| 20260503194047 | 14 | 346 | 4.8 | 6.4 | 0.00 | 0.00 | 0.00 | 89 | 1010.3 |
| 20260503193044 | 14 | 345 | 4.8 | 9.7 | 0.00 | 0.00 | 0.00 | 89 | 1010.3 |
| 20260503192041 | 14 | 14 | 6.4 | 14.5 | 0.00 | 0.00 | 0.00 | 88 | 1010.2 |
| 20260503191041 | 14 | 332 | 6.4 | 11.3 | 0.00 | 0.00 | 0.00 | 88 | 1010.1 |
| 20260503190036 | 14 | 0 | 8.0 | 14.5 | 0.00 | 0.00 | 0.00 | 87 | 1010.0 |
| 20260503185034 | 14 | 18 | 8.0 | 14.5 | 0.00 | 0.00 | 0.00 | 86 | 1010.1 |
| 20260503184031 | 14 | 23 | 4.8 | 9.7 | 0.00 | 0.00 | 0.00 | 85 | 1010.2 |
| 20260503183028 | 14 | 338 | 6.4 | 11.3 | 0.00 | 0.00 | 0.00 | 83 | 1010.1 |
| 20260503182026 | 14 | 333 | 6.4 | 12.9 | 0.00 | 0.00 | 0.00 | 81 | 1010.1 |
| 20260503181023 | 15 | 338 | 3.2 | 11.3 | 0.00 | 0.00 | 0.00 | 80 | 1010.1 |
| 20260503180021 | 15 | 341 | 4.8 | 9.7 | 0.00 | 0.00 | 0.00 | 80 | 1010.0 |
| 20260503175018 | 15 | 25 | 4.8 | 9.7 | 0.00 | 0.00 | 0.00 | 80 | 1010.1 |
| 20260503174015 | 15 | 351 | 6.4 | 12.9 | 0.00 | 0.00 | 0.00 | 78 | 1009.8 |
| 20260503173112 | 15 | 359 | 9.7 | 17.7 | 0.00 | 0.00 | 0.00 | 75 | 1009.8 |
| 20260503172110 | 15 | 355 | 6.4 | 14.5 | 0.00 | 0.00 | 0.00 | 74 | 1009.8 |
| 20260503171107 | 15 | 15 | 8.0 | 17.7 | 0.00 | 0.00 | 0.00 | 74 | 1009.8 |
| 20260503170105 | 15 | 23 | 11.3 | 20.9 | 0.00 | 0.00 | 0.00 | 76 | 1009.8 |
| 20260503131105 | 17 | 278 | 3.2 | 11.3 | 0.00 | 0.00 | 0.00 | 72 | 1011.5 |
| 20260503081046 | 15 | 3 | 6.4 | 12.9 | 0.00 | 0.00 | 0.00 | 81 | 1012.2 |
| 20260503072033 | 15 | 350 | 6.4 | 12.9 | 0.00 | 0.00 | 0.00 | 87 | 1012.3 |
| 20260503071030 | 14 | 23 | 6.4 | 11.3 | 0.00 | 0.00 | 0.00 | 89 | 1012.1 |
| 20260503055110 | 14 | 2 | 6.4 | 11.3 | 0.00 | 0.00 | 0.00 | 88 | 1012.3 |
| 20260503054107 | 14 | 2 | 3.2 | 9.7 | 0.00 | 0.00 | 0.00 | 87 | 1012.3 |
| 20260503053104 | 14 | 9 | 3.2 | 6.4 | 0.00 | 0.00 | 0.00 | 87 | 1012.2 |
| 20260503052102 | 14 | 322 | 3.2 | 6.4 | 0.00 | 0.00 | 0.00 | 86 | 1012.1 |
| 20260503051059 | 14 | 11 | 3.2 | 6.4 | 0.00 | 0.00 | 0.00 | 87 | 1012.1 |
| 20260503050056 | 14 | 340 | 3.2 | 9.7 | 0.00 | 0.00 | 0.00 | 87 | 1012.1 |
| 20260503045054 | 14 | 326 | 4.8 | 6.4 | 0.00 | 0.00 | 0.00 | 87 | 1012.1 |
| 20260503044051 | 14 | 16 | 1.6 | 6.4 | 0.00 | 0.00 | 0.00 | 87 | 1012.1 |
| 20260503043049 | 14 | 21 | 4.8 | 9.7 | 0.00 | 0.00 | 0.00 | 87 | 1012.0 |
| 20260503042046 | 14 | 6 | 4.8 | 9.7 | 0.00 | 0.00 | 0.00 | 87 | 1012.2 |
| 20260503041044 | 14 | 314 | 4.8 | 6.4 | 0.00 | 0.00 | 0.00 | 89 | 1012.2 |
| 20260503040041 | 14 | 307 | 4.8 | 6.4 | 0.00 | 0.00 | 0.00 | 90 | 1012.5 |
| 20260503035038 | 14 | 279 | 3.2 | 6.4 | 0.00 | 0.00 | 0.00 | 91 | 1012.5 |
| 20260503034036 | 14 | 308 | 3.2 | 6.4 | 0.00 | 0.00 | 0.00 | 91 | 1012.5 |
| 20260503033033 | 14 | 315 | 4.8 | 6.4 | 0.00 | 0.00 | 0.00 | 91 | 1012.6 |
| 20260503032031 | 14 | 343 | 1.6 | 6.4 | 0.00 | 0.00 | 0.00 | 90 | 1012.6 |
| 20260503031028 | 14 | 320 | 4.8 | 9.7 | 0.00 | 0.00 | 0.00 | 90 | 1012.8 |
| 20260503030025 | 14 | 316 | 3.2 | 6.4 | 0.00 | 0.00 | 0.00 | 89 | 1012.9 |
| 20260503025023 | 14 | 336 | 3.2 | 6.4 | 0.00 | 0.00 | 0.00 | 89 | 1013.0 |
| 20260503024020 | 14 | 322 | 3.2 | 6.4 | 0.00 | 0.00 | 0.00 | 89 | 1013.1 |
| 20260503023017 | 14 | 325 | 1.6 | 6.4 | 0.00 | 0.00 | 0.00 | 90 | 1013.0 |
| 20260503022115 | 14 | 27 | 3.2 | 6.4 | 0.00 | 0.00 | 0.00 | 90 | 1013.0 |
| 20260503021112 | 14 | 32 | 3.2 | 6.4 | 0.00 | 0.00 | 0.00 | 89 | 1013.0 |
| 20260503020109 | 14 | 28 | 1.6 | 6.4 | 0.00 | 0.00 | 0.00 | 89 | 1013.1 |
| 20260503015106 | 14 | 1 | 1.6 | 6.4 | 0.00 | 0.00 | 0.00 | 89 | 1013.2 |
| 20260503014104 | 14 | 324 | 1.6 | 6.4 | 0.00 | 0.00 | 0.00 | 88 | 1013.1 |
| 20260503013101 | 14 | 8 | 3.2 | 9.7 | 0.00 | 0.00 | 0.00 | 88 | 1013.2 |
| 20260503012058 | 14 | 314 | 4.8 | 9.7 | 0.00 | 0.00 | 0.00 | 89 | 1013.2 |
| 20260503011056 | 14 | 10 | 4.8 | 9.7 | 0.00 | 0.00 | 0.00 | 89 | 1013.3 |
| 20260503010053 | 14 | 344 | 3.2 | 9.7 | 0.00 | 0.00 | 0.00 | 89 | 1013.7 |
| 20260503005051 | 14 | 328 | 3.2 | 6.4 | 0.00 | 0.00 | 0.00 | 89 | 1013.9 |
| 20260503004048 | 14 | 359 | 4.8 | 6.4 | 0.00 | 0.00 | 0.00 | 89 | 1013.9 |
| 20260503003045 | 15 | 304 | 3.2 | 9.7 | 0.00 | 0.00 | 0.00 | 88 | 1014.1 |
| 20260503002043 | 15 | 29 | 3.2 | 9.7 | 0.00 | 0.00 | 0.00 | 88 | 1014.3 |
| 20260503001040 | 15 | 338 | 4.8 | 11.3 | 0.00 | 0.00 | 0.00 | 88 | 1014.2 |
| 20260503000038 | 15 | 344 | 3.2 | 11.3 | 0.00 | 0.00 | 0.00 | 88 | 1014.5 |
| 20260502235035 | 15 | 305 | 6.4 | 14.5 | 0.00 | 0.00 | 0.00 | 87 | 1014.5 |
| 20260502234032 | 15 | 358 | 8.0 | 14.5 | 0.00 | 0.00 | 0.00 | 87 | 1014.7 |
| 20260502233030 | 15 | 334 | 6.4 | 12.9 | 0.00 | 0.00 | 0.00 | 88 | 1014.7 |
| 20260502232027 | 15 | 340 | 6.4 | 11.3 | 0.00 | 0.00 | 0.00 | 88 | 1014.9 |
| 20260502231024 | 15 | 320 | 6.4 | 9.7 | 0.00 | 0.00 | 0.00 | 88 | 1014.9 |
| 20260502230021 | 15 | 2 | 4.8 | 11.3 | 0.00 | 0.00 | 0.00 | 87 | 1014.8 |
| 20260502225018 | 15 | 349 | 4.8 | 11.3 | 0.00 | 0.00 | 0.00 | 87 | 1014.6 |
| 20260502224016 | 15 | 308 | 4.8 | 11.3 | 0.00 | 0.00 | 0.00 | 87 | 1014.7 |
| 20260502223113 | 15 | 331 | 4.8 | 9.7 | 0.00 | 0.00 | 0.00 | 87 | 1014.9 |
| 20260502222111 | 15 | 316 | 8.0 | 12.9 | 0.00 | 0.00 | 0.00 | 87 | 1015.0 |
| 20260502221108 | 15 | 335 | 9.7 | 12.9 | 0.00 | 0.00 | 0.00 | 86 | 1015.2 |
| 20260502220106 | 15 | 351 | 8.0 | 12.9 | 0.00 | 0.00 | 0.00 | 86 | 1015.2 |
| 20260502215103 | 15 | 351 | 9.7 | 17.7 | 0.00 | 0.00 | 0.00 | 86 | 1015.1 |
| 20260502214100 | 15 | 330 | 6.4 | 14.5 | 0.00 | 0.00 | 0.00 | 86 | 1015.2 |
| 20260502213058 | 15 | 348 | 3.2 | 9.7 | 0.00 | 0.00 | 0.00 | 86 | 1015.4 |